[[{"header":{"parameterUnit":"m.s-1","parameterCategory":1,"la1":30.2991,"la2":30.254,"lo1":-89.0895,"lo2":-89.0444,"dy":0.0017,"dx":0.0017,"nx":28,"ny":28,"refTime":"2024-08-16T03:00:00:Z","depth":0,"parameterNumber":2,"parameterNumberName":"U-component_of_WINDS"},"data":[0,0,0,0,0,0,0,0,0,0,0,0,0,0,0,0,0,0,0,0,0,0,0,0,0,0,0,0,0,0,0,0,0,0,0,0,0,0,0,0,0,0,0,0,0,0,0,0,0,0,0,0,0,0,0,0,0,0,1.1994,1.1995,0,1.2101,1.2102,1.2103,1.2146,1.2146,1.2146,1.2146,1.2254,1.2257,1.226,0,0,0,0,0,0,0,0,0,0,0,0,0,1.1825,1.1828,1.1994,1.1995,1.1997,1.2101,1.2102,1.2103,1.2146,1.2146,1.2146,1.2146,1.2253,1.2257,1.2261,0,0,0,0,0,0,0,0,0,0,0,0,0,1.1912,1.1829,1.1994,1.2031,1.2035,1.21,1.2102,1.2104,1.2147,1.2146,1.2146,1.2145,1.2252,1.2257,1.2261,1.2297,0,0,1.2275,1.2278,0,0,0,0,0,0,0,0,1.1907,1.1918,1.2024,1.2028,1.2033,1.211,1.2082,1.2169,1.2147,1.2104,1.2146,1.2145,1.2206,1.2215,1.2236,1.2302,1.2307,1.2276,1.2279,1.2281,1.2282,0,0,0,0,0,0,0,1.1901,1.1913,1.2036,1.2025,1.2031,1.2041,1.2053,1.2099,1.2156,1.2108,1.2111,1.2123,1.2209,1.2231,1.2239,1.2309,1.2276,1.228,1.2283,1.2285,1.2409,1.241,0,0,0,0,0,0,1.1889,1.1908,1.2033,1.2039,1.1968,1.2044,1.2058,1.2086,1.2156,1.2166,1.2124,1.2125,1.2223,1.2233,1.2243,1.2289,1.2281,1.2285,1.2288,1.2409,1.2409,1.241,0,0,0,0,0,0,1.1885,1.19,1.2028,1.1975,1.1992,1.2048,1.2079,1.2088,1.211,1.2168,1.2178,1.2136,1.2223,1.2236,1.2283,1.2293,1.2287,1.2291,1.2408,1.2409,1.241,1.2382,0,0,0,0,0,0,1.188,1.1898,1.1913,1.1975,1.1995,1.2068,1.2079,1.209,1.2118,1.2121,1.2182,1.2191,1.2224,1.2276,1.2288,1.23,1.2295,1.2407,1.2408,1.2409,1.2382,1.2382,1.2381,0,0,0,0,0,1.1874,1.1901,1.1913,1.1928,1.2015,1.2068,1.208,1.2117,1.2119,1.2134,1.217,1.219,1.229,1.228,1.2294,1.2307,1.2407,1.2408,1.2409,1.2382,1.2382,1.2381,0,0,0,0,0,0,1.1839,1.191,1.1924,1.1973,1.2014,1.2076,1.2096,1.2115,1.2157,1.2158,1.2202,1.2215,1.2258,1.2288,1.2276,1.2345,1.235,1.2354,1.2325,1.2325,1.2324,1.2316,1.2299,0,0,0,0,0,1.1836,1.1875,1.1935,1.1971,1.1991,1.204,1.2065,1.2089,1.2134,1.2152,1.2192,1.2234,1.2275,1.2302,1.2343,1.2386,1.24,1.2402,1.2402,1.2401,1.2404,1.2428,1.243,1.2413,1.2413,1.2413,0,0,1.1832,1.1876,1.1898,1.1965,1.2,1.2038,1.2054,1.2094,1.2122,1.2158,1.2205,1.2236,1.2286,1.2331,1.2353,1.2357,1.2411,1.2402,1.2401,1.2405,1.2429,1.2431,1.2432,1.2414,1.2414,1.2414,0,0,1.1844,1.1882,1.1916,1.195,1.2003,1.2035,1.2043,1.2102,1.2123,1.2171,1.2198,1.2232,1.2302,1.2336,1.2363,1.2386,1.2405,1.2398,1.2395,1.2419,1.242,1.2421,1.2429,1.2431,1.2401,1.2401,1.2401,0,1.1833,1.1892,1.1931,1.1969,1.1997,1.2031,1.2065,1.2097,1.216,1.2179,1.2182,1.227,1.2306,1.2359,1.2364,1.2385,1.2395,1.2392,1.2417,1.2418,1.242,1.2428,1.2431,1.2399,1.24,1.24,1.24,0,1.1874,1.1914,1.1935,1.1996,1.2026,1.2062,1.2106,1.2132,1.2154,1.2185,1.2232,1.2277,1.2327,1.2341,1.2363,1.2397,1.2398,1.2408,1.2414,1.242,1.2428,1.2431,1.2398,1.2398,1.2398,1.2399,0,0,1.1868,1.1948,1.1956,1.1983,1.2043,1.2074,1.2111,1.216,1.2181,1.2223,1.2255,1.2313,1.2322,1.2352,1.2378,1.2398,1.2413,1.2406,1.2408,1.2406,1.2452,1.2444,1.2447,1.2425,1.2426,1.2427,1.2448,0,1.1888,1.1956,1.1991,1.2044,1.2081,1.2112,1.2144,1.2184,1.2214,1.2249,1.2281,1.2321,1.2331,1.235,1.2371,1.2406,1.2423,1.2405,1.2454,1.2456,1.2441,1.2451,1.2443,1.2461,1.2451,1.2452,1.2452,0,1.192,1.1962,1.2018,1.2073,1.209,1.2118,1.2165,1.2198,1.2243,1.2263,1.2296,1.2321,1.236,1.2362,1.2416,1.2403,1.2425,1.2445,1.2447,1.2453,1.2454,1.2457,1.2468,1.247,1.2458,1.2457,1.2457,0,1.1909,1.1979,1.2022,1.2044,1.2109,1.2128,1.2156,1.2201,1.2228,1.2269,1.2286,1.2331,1.2355,1.2389,1.2425,1.2423,1.2475,1.248,1.2492,1.2491,1.2502,1.2501,1.2516,1.2516,1.2516,1.2516,1.2516,0,1.1928,1.1961,1.2018,1.2044,1.2081,1.2121,1.2157,1.2187,1.2226,1.2258,1.2288,1.2317,1.2363,1.2398,1.2426,1.2466,1.2477,1.2494,1.2501,1.2491,1.2489,1.2506,1.2506,1.2517,1.2517,1.2516,1.2516,0,1.1922,1.1962,1.201,1.2067,1.2083,1.2107,1.2156,1.2182,1.2213,1.2253,1.2264,1.2312,1.2355,1.2394,1.245,1.2469,1.2509,1.2518,1.2494,1.2498,1.2507,1.2506,1.2534,1.254,1.2536,1.2536,1.2536,0,1.1931,1.1957,1.2017,1.2041,1.2068,1.2106,1.2133,1.2173,1.22,1.2253,1.2272,1.2316,1.2354,1.242,1.2459,1.2502,1.2513,1.2519,1.2519,1.2508,1.2512,1.251,1.2513,1.2519,1.2519,1.2519,1.2518,0,1.1943,1.1961,1.2,1.2045,1.2076,1.2114,1.2152,1.2169,1.2216,1.2245,1.2288,1.2317,1.2374,1.2418,1.2465,1.2493,1.2513,1.2518,1.2523,1.2514,1.2498,1.2506,1.2492,1.2517,1.2517,1.2518,1.2518,1.2518,1.1945,1.1969,1.2015,1.2057,1.209,1.2124,1.2151,1.2185,1.2222,1.2272,1.2293,1.2336,1.238,1.2445,1.2473,1.2507,1.2512,1.2519,1.2521,1.2522,1.252,1.2492,1.2516,1.2516,1.2516,1.2516,1.2516,0,1.1958,1.1989,1.2027,1.2079,1.2111,1.2128,1.2171,1.2196,1.2235,1.2274,1.231,1.2359,1.2401,1.2443,1.2487,1.2506,1.2517,1.2517,1.2516,1.2522,1.2514,1.2505,1.2507,1.2507,1.2507,1.2507,1.2507,1.2507,1.1968,1.201,1.2033,1.2091,1.2122,1.2165,1.2188,1.222,1.2251,1.2305,1.234,1.2367,1.2407,1.2454,1.2493,1.2504,1.2519,1.2516,1.253,1.2522,1.2522,1.2523,1.2515,1.2519,1.2519,1.2535,1.2535,1.2535]},{"header":{"parameterUnit":"m.s-1","parameterCategory":1,"la1":30.2991,"la2":30.254,"lo1":-89.0895,"lo2":-89.0444,"dy":0.0017,"dx":0.0017,"nx":28,"ny":28,"refTime":"2024-08-16T03:00:00:Z","depth":0,"parameterNumber":3,"parameterNumberName":"V-component_of_WINDS"},"data":[0,0,0,0,0,0,0,0,0,0,0,0,0,0,0,0,0,0,0,0,0,0,0,0,0,0,0,0,0,0,0,0,0,0,0,0,0,0,0,0,0,0,0,0,0,0,0,0,0,0,0,0,0,0,0,0,0,0,3.8349,3.8349,0,3.8281,3.8281,3.828,3.8214,3.8214,3.8213,3.8212,3.8137,3.8136,3.8135,0,0,0,0,0,0,0,0,0,0,0,0,0,3.8419,3.8418,3.835,3.8349,3.8348,3.8282,3.8281,3.828,3.8215,3.8214,3.8213,3.8212,3.8138,3.8136,3.8135,0,0,0,0,0,0,0,0,0,0,0,0,0,3.8374,3.8418,3.835,3.8308,3.8303,3.8282,3.8281,3.8279,3.8215,3.8214,3.8212,3.8211,3.8138,3.8136,3.8134,3.8148,0,0,3.8129,3.8128,0,0,0,0,0,0,0,0,3.8376,3.8371,3.8315,3.831,3.8305,3.8255,3.8277,3.8235,3.8215,3.8248,3.8212,3.8211,3.8177,3.8172,3.8162,3.8144,3.8141,3.8129,3.8127,3.8127,3.8126,0,0,0,0,0,0,0,3.8379,3.8374,3.8322,3.8314,3.8308,3.8291,3.8283,3.8269,3.822,3.8245,3.824,3.8233,3.8174,3.8164,3.8159,3.814,3.8129,3.8127,3.8126,3.8125,3.8129,3.813,0,0,0,0,0,0,3.839,3.8377,3.8324,3.832,3.8339,3.829,3.8282,3.8272,3.822,3.8211,3.8235,3.8231,3.8167,3.8162,3.8157,3.8168,3.8127,3.8125,3.8124,3.8127,3.8129,3.813,0,0,0,0,0,0,3.8391,3.8386,3.8327,3.8347,3.8338,3.829,3.8281,3.8272,3.8261,3.8212,3.8203,3.8233,3.8166,3.8159,3.815,3.8164,3.8124,3.8122,3.8126,3.8128,3.813,3.8191,0,0,0,0,0,0,3.8394,3.8387,3.8392,3.8348,3.8338,3.8324,3.8282,3.8271,3.8259,3.8253,3.8208,3.8199,3.8165,3.8154,3.8149,3.8161,3.8121,3.8125,3.8127,3.8129,3.8188,3.8195,3.8201,0,0,0,0,0,3.8396,3.8411,3.8393,3.8387,3.8344,3.8325,3.8319,3.828,3.826,3.8264,3.8233,3.8201,3.8164,3.8153,3.8147,3.8159,3.8123,3.8126,3.8129,3.8185,3.8194,3.8201,0,0,0,0,0,0,3.8456,3.8405,3.8383,3.8385,3.836,3.8314,3.8318,3.8291,3.827,3.8265,3.8216,3.8206,3.8203,3.818,3.8169,3.8169,3.8139,3.8141,3.8184,3.8192,3.8198,3.8203,3.8119,0,0,0,0,0,3.847,3.8461,3.8415,3.8421,3.841,3.8367,3.8357,3.8329,3.8301,3.8289,3.8257,3.823,3.8211,3.82,3.8181,3.8185,3.8173,3.819,3.8197,3.8202,3.8204,3.8203,3.8209,3.8139,3.8139,3.8139,0,0,3.8498,3.8468,3.8465,3.8432,3.841,3.8399,3.8358,3.8349,3.834,3.8287,3.8277,3.8253,3.8219,3.8216,3.8213,3.8197,3.8221,3.8206,3.8211,3.8209,3.8206,3.8213,3.8219,3.8141,3.8141,3.814,0,0,3.8542,3.852,3.8522,3.8501,3.8468,3.8439,3.844,3.8398,3.8381,3.8371,3.8331,3.8319,3.8289,3.8267,3.8251,3.8289,3.8258,3.8284,3.8318,3.8318,3.8323,3.8328,3.834,3.8345,3.8286,3.8286,3.8286,0,3.858,3.8565,3.8526,3.852,3.8506,3.846,3.846,3.8441,3.8403,3.8394,3.8377,3.8339,3.8313,3.8304,3.8313,3.8303,3.8301,3.8288,3.8326,3.833,3.8334,3.8345,3.835,3.8289,3.8289,3.8288,3.8288,0,3.8612,3.8603,3.8608,3.8574,3.8561,3.8558,3.8518,3.8509,3.8483,3.8456,3.8446,3.8413,3.8386,3.8382,3.8356,3.8369,3.836,3.8336,3.8304,3.8345,3.8354,3.8358,3.8294,3.8293,3.8292,3.8291,0,0,3.8691,3.8638,3.864,3.8624,3.8585,3.8576,3.8571,3.8547,3.854,3.8515,3.8509,3.8485,3.8462,3.8445,3.8416,3.8416,3.8447,3.8391,3.8389,3.8401,3.8458,3.8476,3.8482,3.8427,3.8427,3.8428,3.8461,0,3.8729,3.8718,3.8683,3.8683,3.8672,3.8629,3.8624,3.8599,3.8574,3.856,3.8532,3.8516,3.8487,3.8476,3.8475,3.8443,3.8457,3.8441,3.8418,3.8418,3.8427,3.8487,3.8506,3.8538,3.8464,3.8465,3.8465,0,3.877,3.8751,3.875,3.8711,3.8706,3.8702,3.8677,3.8665,3.8636,3.8617,3.8599,3.8567,3.8557,3.853,3.8516,3.8505,3.8494,3.8478,3.8478,3.8473,3.8443,3.8482,3.8547,3.8552,3.8471,3.847,3.847,0,3.8827,3.88,3.8796,3.8784,3.8739,3.8738,3.8719,3.8688,3.8676,3.8654,3.8645,3.8621,3.8608,3.859,3.8552,3.8536,3.8541,3.8511,3.8524,3.8525,3.8526,3.8526,3.8589,3.8521,3.8521,3.8521,3.8521,0,3.8871,3.8871,3.882,3.8818,3.8817,3.8777,3.8777,3.8753,3.8727,3.8718,3.8679,3.8671,3.8622,3.8608,3.8578,3.857,3.8564,3.8548,3.854,3.8551,3.8553,3.8541,3.8537,3.8522,3.8522,3.8522,3.8522,0,3.8933,3.8899,3.8891,3.8851,3.884,3.8842,3.8806,3.8801,3.8774,3.8763,3.8758,3.8715,3.8697,3.8658,3.8628,3.8608,3.8607,3.8593,3.8617,3.8612,3.8627,3.8625,3.8683,3.8688,3.862,3.862,3.8621,0,3.8962,3.8962,3.8922,3.8914,3.8898,3.8885,3.8873,3.8833,3.8822,3.8789,3.8787,3.8766,3.8747,3.8719,3.8684,3.8661,3.8646,3.8668,3.8642,3.8653,3.8644,3.8644,3.8644,3.8673,3.8674,3.8675,3.8675,0,3.9018,3.9002,3.8987,3.8966,3.8953,3.8934,3.8913,3.8908,3.8863,3.8852,3.8834,3.882,3.8791,3.8769,3.8742,3.872,3.869,3.8684,3.8686,3.8696,3.871,3.8701,3.8631,3.8683,3.8682,3.8681,3.8681,3.8681,3.9064,3.9061,3.9033,3.9018,3.8998,3.898,3.8973,3.8947,3.8931,3.8906,3.8883,3.8866,3.8836,3.8796,3.8777,3.8762,3.8747,3.875,3.875,3.8751,3.8755,3.8714,3.8757,3.8757,3.8756,3.8756,3.8756,0,3.9116,3.9097,3.9083,3.9056,3.9043,3.9019,3.8994,3.8985,3.8972,3.8947,3.893,3.8909,3.8888,3.8853,3.8829,3.8824,3.881,3.8819,3.8818,3.8813,3.877,3.8771,3.8831,3.8831,3.8831,3.8831,3.8831,3.8831,3.9142,3.9137,3.9118,3.9102,3.9082,3.9067,3.9055,3.9037,3.9018,3.8996,3.898,3.8958,3.8928,3.8902,3.8882,3.8872,3.8864,3.8878,3.8863,3.8823,3.8816,3.881,3.881,3.8877,3.8877,3.8907,3.8907,3.8908]}]]